• Processing (Info)

  • MPEC 2008-E64 : 2008 EQ7

    The following Minor Planet Electronic Circular may be linked-to from your own Web pages, but must not otherwise be redistributed electronically.

    A form allowing access to any MPEC is at the bottom of this page.


    Read MPEC 2008-E63 Read MPEC 2008-E65


    M.P.E.C. 2008-E64                                Issued 2008 Mar. 7, 19:34 UT
    
         The Minor Planet Electronic Circulars contain information on unusual
             minor planets and routine data on comets.  They are published
       on behalf of Commission 20 of the International Astronomical Union by the
              Minor Planet Center, Smithsonian Astrophysical Observatory,
                              Cambridge, MA 02138, U.S.A.
    
                 Prepared using the Tamkin Foundation Computer Network
    
                                  MPC@CFA.HARVARD.EDU
              URL http://www.cfa.harvard.edu/iau/mpc.html  ISSN 1523-6714
    
                                       2008 EQ7
    
    Observations:
         K08E07Q* C2008 03 06.32303 13 17 38.61 +11 52 00.9          20.7 V EE064703
         K08E07Q  C2008 03 06.33363 13 17 40.52 +11 52 21.5          20.5 V EE064703
         K08E07Q  C2008 03 06.35485 13 17 44.26 +11 53 05.6          20.3 V EE064703
         K08E07Q  C2008 03 06.39410 13 17 51.03 +11 54 24.5          20.1 V EE064703
         K08E07Q  C2008 03 06.40391 13 17 52.76 +11 54 43.7          20.6 V EE064703
         K08E07Q  C2008 03 06.41380 13 17 54.42 +11 55 04.1          20.5 V EE064703
         K08E07Q  C2008 03 06.42361 13 17 56.04 +11 55 25.3          20.1 V EE064703
         K08E07Q  C2008 03 06.47103 13 18 04.42 +11 56 57.1          19.9 V EE064703
         K08E07Q  C2008 03 06.47281 13 18 04.57 +11 57 02.2          19.9 V EE064703
         K08E07Q  C2008 03 06.47457 13 18 04.96 +11 57 05.8          20.7 V EE064703
         K08E07Q  C2008 03 06.47635 13 18 05.29 +11 57 09.3          20.5 V EE064703
         K08E07Q  C2008 03 06.98977 13 19 46.50 +12 14 11.2                 EE064246
         K08E07Q  C2008 03 06.99106 13 19 46.75 +12 14 14.5                 EE064246
         K08E07Q  C2008 03 06.99277 13 19 47.06 +12 14 17.0                 EE064246
         K08E07Q  C2008 03 06.99387 13 19 47.28 +12 14 20.4                 EE064246
         K08E07Q  C2008 03 06.99477 13 19 47.46 +12 14 21.8                 EE064246
         K08E07Q  C2008 03 06.99558 13 19 47.57 +12 14 23.1                 EE064246
         K08E07Q  C2008 03 07.14577 13 20 14.29 +12 19 27.2          19.5 R EE064118
         K08E07Q  C2008 03 07.15270 13 20 15.62 +12 19 41.8          19.3 R EE064118
         K08E07Q  C2008 03 07.16136 13 20 17.18 +12 19 58.8          19.2 R EE064118
         K08E07Q  C2008 03 07.27739 13 20 43.38 +12 24 07.5          20.4 R EE064651
         K08E07Q  C2008 03 07.27916 13 20 43.68 +12 24 11.5          20.8 R EE064651
         K08E07Q  C2008 03 07.32926 13 20 52.65 +12 25 53.5          20.4 V EE064G96
         K08E07Q  C2008 03 07.33482 13 20 53.66 +12 26 05.0          20.1 V EE064G96
         K08E07Q  C2008 03 07.34037 13 20 54.60 +12 26 16.8          20.2 V EE064G96
         K08E07Q  C2008 03 07.34579 13 20 55.53 +12 26 27.8          20.3 V EE064G96
    
    Observer details:
    118 Modra.  Observer L. Kornos.  0.6-m f/5.5 reflector + CCD.
    246 Klet Observatory-KLENOT.  Observer M. Tichy.  1.06-m KLENOT Telescope
        + CCD.
    651 Grasslands Observatory, Tucson.  Observer J. E. McGaha.  0.62-m f/5.1
        Newtonian reflector + CCD.
    703 Catalina Sky Survey.  Observer R. A. Kowalski.  Measurers E. C. Beshore,
        A. Boattini, G. J. Garradd, A. R. Gibbs, A. D. Grauer, R. E. Hill,
        R. A. Kowalski, S. M. Larson, R. H. McNaught.  0.68-m Schmidt + CCD.
    G96 Mt. Lemmon Survey.  Observer A. D. Grauer.  Measurers E. C. Beshore,
        A. Boattini, G. J. Garradd, A. R. Gibbs, A. D. Grauer, R. E. Hill,
        R. A. Kowalski, S. M. Larson, R. H. McNaught.  1.5-m reflector + CCD.
    
    Orbital elements:
    2008 EQ7                                                 Earth MOID = 0.1326 AU
    Epoch 2008 May 14.0 TT = JDT 2454600.5                  MPC
    M  17.57191              (2000.0)            P               Q
    n   0.59210508     Peri.   63.07699     -0.89744027     +0.43669730
    a   1.4045489      Node   142.72338     -0.43240844     -0.84282611
    e   0.2181204      Incl.    5.91556     -0.08731493     -0.31454668
    P   1.66           H   22.7           G   0.15           U   8
    Residuals in seconds of arc
    080306 703  0.3-  0.3-    080306 703  0.3-  0.6+    080307 118  0.5+  0.5+
    080306 703  0.4+  1.2-    080306 703  0.1-  0.5+    080307 118  0.3+  0.1+
    080306 703  1.0+  0.0     080306 246  0.6-  0.0     080307 651  0.2-  0.2+
    080306 703  0.4+  0.2-    080306 246  0.4-  0.6+    080307 651  0.4-  0.5+
    080306 703  0.9+  0.7-    080306 246  0.3-  0.4-    080307 G96  0.4+  0.7-
    080306 703  0.1+  0.1-    080306 246  0.0   0.8+    080307 G96  0.8+  0.6-
    080306 703  1.1-  1.5+    080306 246  0.3+  0.4+    080307 G96  0.3+  0.3-
    080306 703  0.8+  1.1-    080306 246  0.2-  0.0     080307 G96  0.1-  0.5-
    080306 703  1.5-  0.5+    080307 118  0.6-  0.2-
    
    Ephemeris:
    2008 EQ7                 a,e,i = 1.40, 0.22, 6                   q = 1.0982
    Date    TT    R. A. (2000) Decl.     Delta      r     Elong.  Phase     V
    2008 03 05    13 13.41   +11 08.8    0.171    1.140   147.5    27.9    20.4
    2008 03 15    13 46.33   +16 59.4    0.151    1.122   145.7    30.0    20.1
    2008 03 25    14 20.90   +22 56.7    0.139    1.109   140.9    34.5    20.1
    2008 04 04    14 54.38   +27 51.8    0.136    1.101   135.5    39.5    20.1
    2008 04 14    15 23.54   +30 53.7    0.137    1.098   131.4    43.3    20.3
    2008 04 24    15 46.54   +31 47.8    0.141    1.101   129.4    44.9    20.4
    2008 05 04    16 02.66   +30 42.9    0.147    1.108   129.7    44.4    20.5
    2008 05 14    16 12.78   +27 46.7    0.156    1.121   132.1    42.0    20.5
    2008 05 24    16 19.01   +23 15.2    0.167    1.138   135.8    38.3    20.6
    2008 06 03    16 23.22   +17 31.8    0.182    1.160   139.8    34.4    20.7
    2008 06 13    16 27.42   +11 06.1    0.204    1.184   142.8    31.2    20.9
    2008 06 23    16 33.12   +04 36.5    0.233    1.212   143.7    29.8    21.2
    2008 07 03    16 40.94   -01 26.5    0.270    1.241   142.2    30.2    21.6
    
    Sonia Keys                   (C) Copyright 2008 MPC           M.P.E.C. 2008-E64
    

    Read MPEC 2008-E63 Read MPEC 2008-E65


    MPEC number:

    Enter an MPEC number in one of the following forms:

    • 1997-B01 (the full form)
    • J97B01 (the packed version of the full form)
    • B01 (the abbreviated form)